| time (UTC) | temp F | wind direction | speed MPH | gust MPH | rain 1hr in | rain 24hr in | rain mn in | humidity % | barometer mb |
| 20260901191623 | 54 | 308 | 3.0 | 15.0 | 0.00 | 0.00 | 0.00 | 61 | 1010.0 |
| 20260901190040 | 53 | 65 | 6.0 | 15.0 | 0.00 | 0.00 | 0.00 | 62 | 1010.0 |
| 20260901184557 | 53 | 89 | 3.0 | 9.0 | 0.00 | 0.00 | 0.00 | 65 | 1010.1 |
| 20260901183055 | 51 | 104 | 6.0 | 13.0 | 0.00 | 0.00 | 0.00 | 67 | 1010.2 |
| 20260901181551 | 51 | 83 | 6.0 | 13.0 | 0.00 | 0.00 | 0.00 | 64 | 1010.2 |
| 20260901180057 | 51 | 34 | 2.0 | 10.0 | 0.00 | 0.00 | 0.00 | 68 | 1010.3 |
| 20260901174556 | 50 | 41 | 3.0 | 13.0 | 0.00 | 0.00 | 0.00 | 68 | 1010.3 |
| 20260901173044 | 49 | 20 | 6.0 | 13.0 | 0.00 | 0.00 | 0.00 | 68 | 1010.1 |
| 20260901171604 | 48 | 30 | 3.0 | 14.0 | 0.00 | 0.00 | 0.00 | 71 | 1010.2 |
| 20260901170056 | 46 | 1 | 4.0 | 11.0 | 0.00 | 0.00 | 0.00 | 72 | 1010.3 |
| 20260901164502 | 45 | 36 | 5.0 | 11.0 | 0.00 | 0.00 | 0.00 | 73 | 1010.3 |
| 20260901163056 | 44 | 54 | 1.0 | 7.0 | 0.00 | 0.00 | 0.00 | 76 | 1010.3 |
| 20260901161553 | 43 | 23 | 3.0 | 9.0 | 0.00 | 0.00 | 0.00 | 77 | 1010.3 |
| 20260901160001 | 42 | 317 | 2.0 | 10.0 | 0.00 | 0.00 | 0.00 | 79 | 1010.0 |
| 20260901154557 | 40 | 338 | 4.0 | 12.0 | 0.00 | 0.00 | 0.00 | 81 | 1010.1 |
| 20260901153059 | 40 | 31 | 2.0 | 11.0 | 0.00 | 0.00 | 0.00 | 82 | 1010.0 |
| 20260901151600 | 38 | 327 | 3.0 | 9.0 | 0.00 | 0.00 | 0.00 | 85 | 1009.9 |
| 20260901150107 | 37 | 328 | 3.0 | 7.0 | 0.00 | 0.00 | 0.00 | 85 | 1009.7 |
| 20260901144550 | 37 | 77 | 3.0 | 8.0 | 0.00 | 0.00 | 0.00 | 86 | 1009.8 |
| 20260901143114 | 37 | 45 | 2.0 | 10.0 | 0.00 | 0.00 | 0.00 | 85 | 1009.8 |
| 20260901141606 | 36 | 31 | 3.0 | 8.0 | 0.00 | 0.00 | 0.00 | 86 | 1009.8 |
| 20260901140124 | 37 | 336 | 1.0 | 7.0 | 0.00 | 0.00 | 0.00 | 86 | 1009.8 |
| 20260901134557 | 37 | 44 | 2.0 | 6.0 | 0.00 | 0.00 | 0.00 | 85 | 1009.9 |
| 20260901133052 | 37 | 31 | 3.0 | 7.0 | 0.00 | 0.00 | 0.00 | 86 | 1009.8 |
| 20260901131508 | 37 | 342 | 3.0 | 7.0 | 0.00 | 0.00 | 0.00 | 85 | 1009.7 |
| 20260901130059 | 37 | 293 | 2.0 | 6.0 | 0.00 | 0.00 | 0.00 | 84 | 1009.7 |
| 20260901124556 | 38 | 326 | 4.0 | 8.0 | 0.00 | 0.01 | 0.00 | 84 | 1009.8 |
| 20260901123044 | 37 | 317 | 2.0 | 8.0 | 0.00 | 0.01 | 0.00 | 84 | 1009.6 |
| 20260901121607 | 37 | 333 | 2.0 | 7.0 | 0.00 | 0.01 | 0.00 | 83 | 1009.6 |
| 20260901120048 | 37 | 354 | 2.0 | 9.0 | 0.00 | 0.01 | 0.00 | 83 | 1009.5 |
| 20260901114507 | 37 | 330 | 2.0 | 9.0 | 0.00 | 0.03 | 0.00 | 83 | 1009.6 |
| 20260901113103 | 37 | 4 | 3.0 | 9.0 | 0.00 | 0.03 | 0.00 | 83 | 1009.3 |
| 20260901111654 | 37 | 323 | 4.0 | 9.0 | 0.00 | 0.03 | 0.00 | 83 | 1009.4 |
| 20260901110043 | 37 | 250 | 2.0 | 9.0 | 0.00 | 0.03 | 0.00 | 83 | 1009.2 |
| 20260901104604 | 38 | 346 | 2.0 | 5.0 | 0.00 | 0.06 | 0.00 | 82 | 1008.9 |
| 20260901103051 | 38 | 311 | 3.0 | 7.0 | 0.00 | 0.06 | 0.00 | 82 | 1008.5 |
| 20260901101601 | 39 | 299 | 2.0 | 6.0 | 0.00 | 0.06 | 0.00 | 80 | 1008.5 |
| 20260901100159 | 40 | 346 | 3.0 | 9.0 | 0.00 | 0.06 | 0.00 | 79 | 1008.3 |
| 20260901094552 | 40 | 360 | 3.0 | 10.0 | 0.00 | 0.08 | 0.00 | 78 | 1008.4 |
| 20260901093047 | 40 | 358 | 4.0 | 12.0 | 0.00 | 0.08 | 0.00 | 79 | 1008.3 |
| 20260901091601 | 40 | 26 | 3.0 | 10.0 | 0.00 | 0.08 | 0.00 | 79 | 1007.9 |
| 20260901090050 | 40 | 285 | 4.0 | 8.0 | 0.00 | 0.08 | 0.00 | 80 | 1007.8 |
| 20260901084551 | 40 | 359 | 3.0 | 8.0 | 0.00 | 0.09 | 0.00 | 79 | 1007.7 |
| 20260901083058 | 41 | 335 | 2.0 | 7.0 | 0.00 | 0.09 | 0.00 | 78 | 1007.6 |
| 20260901081559 | 41 | 39 | 2.0 | 9.0 | 0.00 | 0.09 | 0.00 | 78 | 1007.5 |
| 20260901080217 | 41 | 319 | 4.0 | 10.0 | 0.00 | 0.09 | 0.00 | 78 | 1007.2 |
| 20260901074500 | 41 | 29 | 3.0 | 15.0 | 0.00 | 0.12 | 0.09 | 77 | 1007.2 |
| 20260901073047 | 41 | 326 | 2.0 | 8.0 | 0.00 | 0.12 | 0.09 | 78 | 1007.2 |
| 20260901071504 | 41 | 341 | 3.0 | 10.0 | 0.00 | 0.12 | 0.09 | 78 | 1007.1 |
| 20260901064550 | 42 | 321 | 3.0 | 9.0 | 0.00 | 0.14 | 0.09 | 77 | 1006.9 |
| 20260901063103 | 42 | 316 | 3.0 | 8.0 | 0.00 | 0.14 | 0.09 | 76 | 1006.7 |
| 20260901061602 | 42 | 53 | 3.0 | 7.0 | 0.00 | 0.14 | 0.09 | 76 | 1006.6 |
| 20260901060046 | 43 | 345 | 3.0 | 10.0 | 0.00 | 0.14 | 0.09 | 76 | 1006.3 |
| 20260901054607 | 44 | 31 | 3.0 | 13.0 | 0.00 | 0.14 | 0.09 | 76 | 1006.1 |
| 20260901053055 | 44 | 325 | 4.0 | 12.0 | 0.00 | 0.14 | 0.09 | 76 | 1006.1 |
| 20260901051549 | 45 | 13 | 4.0 | 10.0 | 0.00 | 0.14 | 0.09 | 76 | 1006.0 |
| 20260901050002 | 45 | 340 | 3.0 | 9.0 | 0.00 | 0.14 | 0.09 | 76 | 1006.0 |
| 20260901044612 | 45 | 23 | 2.0 | 7.0 | 0.00 | 0.14 | 0.09 | 75 | 1005.8 |
| 20260901043047 | 46 | 10 | 2.0 | 6.0 | 0.00 | 0.14 | 0.09 | 74 | 1005.6 |
| 20260901041502 | 46 | 60 | 2.0 | 8.0 | 0.00 | 0.14 | 0.09 | 73 | 1005.3 |
| 20260901040100 | 47 | 38 | 3.0 | 9.0 | 0.00 | 0.14 | 0.09 | 73 | 1005.1 |
| 20260901034548 | 47 | 323 | 2.0 | 12.0 | 0.00 | 0.14 | 0.09 | 72 | 1005.0 |
| 20260901033059 | 47 | 12 | 3.0 | 14.0 | 0.00 | 0.14 | 0.09 | 71 | 1004.7 |
| 20260901031558 | 48 | 32 | 6.0 | 12.0 | 0.00 | 0.14 | 0.09 | 69 | 1004.5 |
| 20260901030049 | 49 | 335 | 3.0 | 11.0 | 0.00 | 0.14 | 0.09 | 68 | 1004.1 |
| 20260901024502 | 49 | 25 | 5.0 | 14.0 | 0.00 | 0.14 | 0.09 | 67 | 1003.7 |
| 20260901023055 | 49 | 315 | 5.0 | 13.0 | 0.00 | 0.14 | 0.09 | 67 | 1003.4 |
| 20260901021605 | 50 | 64 | 6.0 | 15.0 | 0.00 | 0.14 | 0.09 | 66 | 1003.2 |
| 20260901020100 | 51 | 41 | 8.0 | 14.0 | 0.00 | 0.14 | 0.09 | 64 | 1002.8 |
| 20260901014557 | 51 | 41 | 5.0 | 15.0 | 0.00 | 0.14 | 0.09 | 65 | 1002.5 |
| 20260901013051 | 51 | 63 | 5.0 | 15.0 | 0.00 | 0.14 | 0.09 | 64 | 1002.1 |
| 20260901011501 | 51 | 49 | 5.0 | 17.0 | 0.00 | 0.14 | 0.09 | 65 | 1001.8 |
| 20260901010158 | 51 | 15 | 9.0 | 22.0 | 0.00 | 0.14 | 0.09 | 64 | 1001.5 |
| 20260901004549 | 51 | 26 | 4.0 | 15.0 | 0.00 | 0.14 | 0.09 | 66 | 1001.4 |
| 20260901003042 | 51 | 44 | 7.0 | 16.0 | 0.00 | 0.14 | 0.09 | 66 | 1001.1 |
| 20260901001604 | 51 | 41 | 5.0 | 18.0 | 0.00 | 0.14 | 0.09 | 68 | 1000.8 |
| 20260901000051 | 51 | 63 | 7.0 | 20.0 | 0.00 | 0.14 | 0.09 | 67 | 1000.4 |
| 20260831234547 | 51 | 51 | 10.0 | 20.0 | 0.00 | 0.14 | 0.09 | 67 | 1000.2 |
| 20260831233054 | 50 | 58 | 7.0 | 18.0 | 0.00 | 0.14 | 0.09 | 72 | 1000.1 |
| 20260831231602 | 49 | 31 | 10.0 | 21.0 | 0.00 | 0.14 | 0.09 | 72 | 999.8 |
| 20260831230051 | 49 | 25 | 7.0 | 23.0 | 0.00 | 0.14 | 0.09 | 73 | 999.6 |
| 20260831224629 | 49 | 62 | 10.0 | 25.0 | 0.00 | 0.14 | 0.09 | 73 | 999.3 |
| 20260831223051 | 50 | 65 | 10.0 | 22.0 | 0.00 | 0.14 | 0.09 | 74 | 999.2 |
| 20260831221553 | 50 | 11 | 7.0 | 15.0 | 0.00 | 0.14 | 0.09 | 79 | 999.1 |
| 20260831220059 | 50 | 15 | 5.0 | 15.0 | 0.00 | 0.14 | 0.09 | 79 | 999.0 |
| 20260831214554 | 50 | 37 | 5.0 | 15.0 | 0.00 | 0.14 | 0.09 | 81 | 999.1 |
| 20260831213049 | 49 | 9 | 6.0 | 12.0 | 0.00 | 0.14 | 0.09 | 82 | 999.0 |
| 20260831211608 | 48 | 358 | 4.0 | 13.0 | 0.00 | 0.14 | 0.09 | 85 | 999.2 |
| 20260831204547 | 47 | 321 | 2.0 | 11.0 | 0.00 | 0.14 | 0.09 | 92 | 999.2 |
| 20260831203059 | 46 | 323 | 3.0 | 9.0 | 0.00 | 0.14 | 0.09 | 93 | 999.2 |
| 20260831201558 | 45 | 300 | 4.0 | 8.0 | 0.00 | 0.14 | 0.09 | 94 | 999.4 |
| 20260831200049 | 44 | 342 | 4.0 | 11.0 | 0.00 | 0.14 | 0.09 | 93 | 999.6 |
| 20260831194612 | 44 | 333 | 1.0 | 6.0 | 0.00 | 0.14 | 0.09 | 94 | 999.7 |
| 20260831193059 | 44 | 324 | 2.0 | 8.0 | 0.00 | 0.14 | 0.09 | 94 | 1000.0 |